SCP
1 1 1 0 0 0 0 0 0 0 0 0 0 0 0 0 0 0 0 0 0 0 0 0 0 0 0 0 0 0 0 0 0 0 0 0 0 0 0 0 0 0 0
1 0 0 0 0 0 0 0 0 0 0 0 0 0 0 0 0 0 0 0 0 0 0 0 0 0 0 0 0 0 0 0 0 0 0 0 0 -0 -0 -0 0 0 0
0 0 0 0 0 0 0 0 0 0 0 0 0 0 0 0 0 0 0 0 0 0 0 0 0 0 0 0 0 0 0 0 0 0 0 0 0 0 0 0 0 0 0
0 0 0 0 0 0 0 0 0 0 0 0 0 0 0 0 0 0 0 0 0 -0 0 0 0 0 0 0 0 0 0 0 0 0 0 0 0 0 0 0 0 0 0
0 0 0 0 0 0 0 0 0 0 0 0 0 0 0 0 0 0 0 0 0 0 0 -0 0 0 0 0 -0 0 0 0 0 0 0 0 0 0 0 0 0 0 0
0 0 0 0 0 0 0 0 0 0 0 0 0 0 0 0 0 0 0 0 0 0 0 0 -0 0 0 0 0 0 0 0 0 0 0 0 0 0 0 0 0 0 0
0 0 0 0 0 0 0 0 0 0 0 0 0 0 0 0 0 0 0 0 0 0 0 0 0 0 0 0 0 0 -0 -0 0 0 0 -0 -0 -0 0 0 -0 -0 0
0 0 0 0 0 0 0 0 0 0 0 0 0 0 0 0 0 0 -0 0 -0 -0 -0 -0 -0 0 0 0 0 0 0 -0 0 0 0 0 -0 0 0 0 0 0 0
0 0 0 0 0 0 -0 0 0 0 0 0 0 0 0 0 0 0 -0 0 0 0 -0 -0 -0 -0 -0 0 0 0 0 0 0 0 -0 -0 -0 -0 -0 0 0 0 0
0 0 0 0 0 0 0 0 0 0 0 0 0 0 0 0 0 0 0 0 0 0 0 -0 -0 0 0 -0 0 0 0 0 0 0 0 0 0 0 0 0 0 0 0
0 0 0 0 0 0 0 0 0 0 0 0 0 0 -0 0 0 0 0 0 0 0 0 0 0 0 0 -0 -0 0 0 0 0 0 0 0 0 0 0 0 0 0 0
0 0 0 0 0 0 0 0 0 0 -0 -0 -0 -0 -0 -0 -0 -0 -0 0 0 0 0 0 0 0 0 0 -0 0 0 0 0 0 0 0 0 0 0 0 0 0 0
0 0 0 0 0 0 0 0 -0 0 0 0 -0 -0 -0 0 0 0 0 0 0 0 -0 0 0 0 0 0 -0 -0 0 0 0 0 0 0 0 0 0 0 0 0 0
0 0 0 0 0 0 0 0 0 0 -0 -0 -0 0 0 0 0 0 0 0 0 0 -0 0 0 0 0 -0 0 0 0 0 0 0 0 0 0 0 0 0 0 0 0
0 0 0 0 0 0 0 0 0 -0 0 0 0 0 0 0 0 0 -0 -0 -0 -0 0 0 0 0 0 0 0 0 0 0 0 0 0 0 0 0 0 0 0 0 0
0 0 0 0 0 0 0 0 -0 0 0 -0 0 0 0 -0 -0 -0 0 0 -0 -0 0 0 0 0 0 0 0 0 0 0 0 0 0 0 0 0 0 0 0 0 0
0 0 0 0 0 0 0 0 0 0 0 0 0 -0 0 -0 -0 0 0 0 0 0 0 0 0 0 0 0 0 0 0 0 0 0 0 0 0 0 0 0 0 0 0
0 0 0 0 0 0 0 0 0 0 0 0 0 0 -0 -0 -0 0 0 0 0 0 0 0 0 0 0 0 0 0 0 0 0 0 0 0 0 0 0 0 0 0 0
0 0 0 0 0 0 0 0 0 0 0 0 -0 0 -0 -0 0 0 0 0 0 0 0 0 0 0 0 0 0 0 0 0 0 0 0 0 0 0 0 0 0 0 0
0 0 0 0 0 0 0 0 0 0 0 0 0 0 0 0 0 0 0 0 0 0 0 0 0 0 0 0 0 0 0 0 0 0 0 0 -0 0 0 0 0 0 0
0 0 -0 0 0 0 0 0 0 0 0 -0 -0 -0 0 0 0 0 0 0 0 0 0 0 0 0 0 0 0 0 0 0 0 0 0 0 0 0 0 0 0 0 0
0 0 0 -0 0 0 0 0 0 0 0 0 -0 0 0 0 0 0 0 0 0 0 0 -0 0 0 0 0 0 0 0 0 0 0 0 0 0 0 0 0 0 0 0
0 0 0 0 0 0 0 0 0 0 0 0 0 0 0 0 0 0 0 0 0 0 0 0 0 0 0 0 0 0 0 0 0 0 0 0 0 0 0 0 0 0 0
-0 0 0 0 0 0 0 0 0 0 0 0 0 0 0 0 0 0 0 0 0 0 0 0 0 0 0 0 0 0 0 0 0 0 0 0 0 0 0 0 0 0 0
-0 0 0 0 0 0 0 0 0 0 0 0 0 0 0 0 0 0 0 0 0 0 0 0 0 0 0 0 0 0 0 0 0 0 0 0 0 0 0 0 0 0 0
-0 0 0 0 0 0 0 0 0 0 0 0 0 0 0 0 0 0 0 0 0 0 0 0 0 0 0 0 0 0 0 0 0 0 0 0 0 0 0 0 0 0 0
Wind_Speed_500mb
19 14 10 9 8 7 8 14 19 21 33 40 37 36 37 40 41 40 41 39 37 31 29 30 28 26 22 20 19 21 18 18 18 23 24 23 23 21 19 15 17 18 24
29 23 29 30 31 32 33 35 33 33 30 32 35 34 34 35 31 34 30 27 25 26 21 18 20 18 21 23 20 22 22 24 24 25 22 22 25 19 22 18 16 16 19
22 28 27 27 23 28 34 35 33 31 29 31 30 35 33 28 26 24 18 15 14 16 12 15 17 17 22 22 13 9 9 19 19 18 22 21 19 12 21 26 29 31 24
33 30 29 27 35 36 35 36 35 33 32 28 25 23 20 22 16 14 16 20 22 32 31 35 31 30 28 21 23 26 15 14 13 20 28 31 19 18 15 22 23 19 25
26 24 24 29 26 27 32 35 35 29 22 19 19 18 16 18 20 20 18 20 23 26 22 32 33 28 34 42 42 42 42 33 24 19 24 25 34 33 34 36 38 39 35
21 25 24 26 31 32 28 26 23 21 19 17 17 18 26 27 20 21 24 25 19 21 28 24 25 19 23 26 31 34 37 42 38 31 26 27 31 33 38 36 29 36 43
19 23 24 24 24 24 27 26 23 17 14 16 20 26 30 33 32 30 31 23 27 29 24 21 32 29 18 25 27 31 32 32 32 33 33 31 32 40 40 42 36 38 41
18 23 25 24 20 16 14 16 19 15 15 20 25 25 25 28 25 22 27 32 31 35 37 41 41 31 18 19 17 9 21 20 22 29 33 36 38 34 32 36 32 38 37
26 26 25 21 20 20 20 17 14 14 21 18 19 24 22 20 18 19 16 13 15 17 24 32 47 36 39 23 27 25 23 27 23 25 26 32 30 36 35 39 39 43 47
29 24 15 13 19 23 13 15 16 16 17 14 20 20 21 22 16 8 12 16 24 6 18 30 43 35 38 45 38 33 28 28 27 32 28 32 31 32 36 41 41 44 46
26 29 24 19 17 16 14 10 16 16 16 12 12 17 24 26 28 32 25 10 7 24 24 24 30 29 30 29 34 33 28 27 26 27 29 34 31 28 31 37 38 37 45
23 23 19 17 10 12 14 14 12 17 16 14 8 4 9 11 20 26 30 22 13 6 16 21 25 25 27 23 21 30 30 23 25 24 31 37 38 46 42 41 32 40 35
25 19 20 15 10 14 8 11 13 5 7 14 19 26 17 13 17 23 25 20 16 13 8 22 19 24 29 17 22 36 27 26 28 32 27 32 39 35 37 45 30 32 34
16 19 9 10 11 7 8 11 18 5 5 10 22 19 15 12 7 13 17 13 16 13 15 19 17 22 30 22 30 28 26 26 29 31 33 37 38 36 39 42 43 40 31
20 15 10 8 10 5 4 2 3 6 9 11 12 9 10 11 23 30 29 19 18 14 11 14 16 12 24 22 25 25 30 28 31 34 30 30 36 41 39 42 41 43 36
17 19 11 9 16 14 2 1 3 8 9 11 14 21 28 30 29 31 22 10 8 6 9 8 14 14 21 25 24 23 28 25 34 36 36 29 43 36 39 38 35 41 40
11 28 13 13 13 9 6 3 5 9 12 13 15 19 25 25 19 13 6 10 9 9 16 15 17 10 20 22 23 27 29 28 33 35 38 41 36 47 40 41 40 42 39
22 24 14 8 3 3 4 5 10 8 12 16 14 12 25 27 27 19 7 6 9 13 11 13 15 17 18 21 22 26 26 28 27 37 37 40 36 42 51 43 42 44 43
19 14 10 4 5 6 4 4 7 3 11 7 12 12 15 23 18 17 19 11 9 9 9 16 13 14 15 19 23 22 22 25 26 27 28 33 33 37 41 37 33 32 47
13 12 8 4 12 3 1 5 5 5 7 11 3 14 14 10 14 14 14 15 15 12 10 10 13 15 18 23 21 30 20 24 33 29 26 34 38 35 42 37 30 27 36
11 4 15 10 5 6 9 0 3 3 4 5 12 24 17 17 12 8 8 11 10 11 16 16 13 13 17 21 20 24 25 19 20 25 23 19 32 43 44 34 31 25 27
7 8 6 7 6 5 3 2 2 2 3 4 9 18 18 19 10 10 11 12 11 12 10 9 16 15 14 21 20 22 19 22 28 30 34 28 34 46 50 44 37 23 26
12 14 6 8 9 9 7 2 2 1 3 4 5 6 9 6 7 8 9 9 9 9 10 11 10 10 14 15 19 19 24 24 25 27 32 27 35 45 46 47 43 38 35
8 10 10 5 5 4 5 5 6 10 8 3 3 3 5 6 6 10 6 7 6 9 9 10 10 14 16 9 16 21 24 19 19 24 27 23 30 36 36 38 42 41 44
14 12 10 9 5 8 6 6 6 5 4 3 3 3 4 4 3 4 5 6 8 6 10 9 13 11 12 22 23 23 26 21 13 18 24 28 32 32 34 38 49 35 43
15 11 11 9 9 9 8 8 8 7 6 5 3 3 2 1 1 2 3 2 3 7 8 9 11 9 18 23 24 25 25 21 14 20 24 25 32 33 30 38 40 37 32
Wind_Direction_500mb
82 77 87 65 61 63 64 79 80 87 92 96 92 85 80 78 75 72 71 69 64 64 63 52 49 44 48 38 34 21 19 8 5 359 351 346 351 352 0 5 356 346 340
76 71 78 82 90 99 95 96 93 93 89 89 86 82 72 69 65 64 62 62 67 63 74 73 67 64 56 46 44 39 30 20 28 15 14 21 9 10 4 350 346 328 303
78 86 87 94 107 109 106 105 105 100 100 93 86 75 68 67 66 60 52 43 30 5 350 28 36 41 71 55 29 13 14 47 5 9 358 346 359 0 6 349 331 338 343
102 99 94 90 94 97 99 97 92 89 95 107 113 117 118 111 92 86 69 43 32 35 41 34 40 53 44 19 16 23 34 40 25 38 30 50 42 28 2 350 330 331 319
96 98 100 109 107 112 109 106 107 104 99 89 85 83 85 101 90 77 83 99 80 59 48 34 32 54 46 41 38 35 34 30 26 55 9 359 353 345 342 327 318 314 312
98 99 102 106 120 118 120 120 113 98 80 66 61 74 87 90 95 91 84 75 93 98 77 61 23 53 53 49 40 27 30 24 34 31 12 6 359 351 347 349 340 328 323
122 133 142 140 130 121 112 106 95 84 75 72 90 96 89 86 80 65 58 79 69 63 54 46 45 48 70 49 41 35 29 26 25 23 22 9 357 354 346 345 337 324 323
137 142 125 125 108 97 103 97 90 82 78 88 95 95 91 86 83 77 50 44 52 58 46 40 30 30 52 52 36 38 29 8 28 24 14 5 1 4 359 349 348 335 336
124 124 117 113 112 110 103 105 96 103 96 98 92 92 91 95 89 76 88 11 6 47 52 38 24 37 47 45 40 55 47 48 27 18 16 8 359 354 357 360 1 351 343
130 119 98 104 108 106 110 102 95 109 110 108 97 85 79 72 68 60 59 86 60 301 53 41 26 40 41 41 43 45 42 27 25 25 12 13 2 353 354 351 356 352 348
103 100 99 96 99 112 108 113 136 143 137 124 118 83 58 59 41 38 30 51 79 52 41 21 16 23 24 35 45 37 22 20 17 22 9 14 10 354 351 355 4 358 359
109 105 98 102 91 76 106 114 121 100 80 76 78 100 76 64 34 27 21 21 29 69 19 3 15 19 13 23 47 25 13 12 18 17 2 3 1 2 1 355 348 356 2
133 121 105 92 78 73 115 136 100 93 288 27 99 103 94 37 27 26 21 14 0 22 9 351 2 19 4 13 23 6 11 15 21 10 4 355 2 5 353 359 6 10 12
148 135 139 110 104 138 140 100 141 139 103 38 59 27 36 20 358 345 344 339 335 341 332 357 18 17 24 37 12 18 17 12 8 2 7 358 358 358 359 359 9 10 8
146 147 142 63 117 136 159 33 318 309 327 324 343 356 345 308 315 328 333 332 342 346 7 10 19 12 21 15 14 6 3 8 8 4 2 2 354 354 5 9 9 5 5
174 164 159 126 140 125 57 66 44 33 22 352 349 340 328 310 307 314 326 349 16 42 52 14 359 5 15 6 10 1 1 7 359 7 6 1 4 7 1 7 7 360 2
200 163 171 131 160 154 47 24 356 342 349 2 0 345 10 21 354 343 69 82 61 41 52 11 2 30 19 8 3 356 6 14 1 359 3 5 6 6 5 2 8 3 2
152 164 130 138 95 124 57 292 316 343 0 352 339 357 22 19 25 43 92 62 36 21 352 339 24 31 17 8 0 356 5 1 3 8 3 6 10 2 1 4 6 4 7
141 150 164 184 127 118 350 279 330 293 340 281 317 357 5 0 350 30 48 23 19 353 16 23 13 22 11 0 356 351 358 359 2 10 7 4 2 355 1 360 4 2 360
178 187 168 173 180 187 283 254 247 356 27 43 126 311 295 339 322 12 30 9 14 23 16 43 23 24 354 356 356 359 7 2 3 356 3 359 359 0 2 3 4 3 354
154 318 186 175 204 210 284 29 2 17 27 286 330 15 89 78 43 33 25 24 46 45 40 27 28 11 2 346 5 8 2 358 353 11 7 6 14 3 6 357 359 9 355
195 174 187 192 228 204 164 98 98 43 50 44 353 32 59 66 48 46 46 49 43 34 22 35 29 24 12 357 11 8 348 356 3 6 11 27 29 16 6 9 2 4 347
255 214 199 170 217 245 147 137 122 83 95 94 88 53 48 55 54 60 48 45 34 28 27 22 24 1 350 29 6 331 337 351 1 3 9 28 27 13 12 8 12 15 11
230 198 194 213 161 179 187 216 268 184 126 102 101 94 88 77 52 45 50 40 44 19 21 20 19 12 7 353 320 333 351 345 3 13 15 23 14 16 14 15 16 17 14
210 178 199 202 222 191 225 192 179 174 179 164 142 102 67 62 39 48 48 42 23 21 28 6 352 18 359 347 0 0 6 9 11 23 26 32 28 16 8 6 1 355 8
218 182 201 214 216 222 225 218 215 212 213 209 193 195 177 80 347 33 17 338 72 7 36 347 7 353 347 6 10 12 14 23 54 60 33 27 17 17 357 12 6 2 4
Wind_Speed_850mb
19 14 10 9 8 7 8 14 19 21 33 40 37 36 37 40 41 40 41 39 37 31 29 30 28 26 22 20 19 21 18 18 18 23 24 23 23 21 19 15 17 18 24
29 23 29 30 31 32 33 35 33 33 30 32 35 34 34 35 31 34 30 27 25 26 21 18 20 18 21 23 20 22 22 24 24 25 22 22 25 19 22 18 16 16 19
22 28 27 27 23 28 34 35 33 31 29 31 30 35 33 28 26 24 18 15 14 16 12 15 17 17 22 22 13 9 9 19 19 18 22 21 19 12 21 26 29 31 24
33 30 29 27 35 36 35 36 35 33 32 28 25 23 20 22 16 14 16 20 22 32 31 35 31 30 28 21 23 26 15 14 13 20 28 31 19 18 15 22 23 19 25
26 24 24 29 26 27 32 35 35 29 22 19 19 18 16 18 20 20 18 20 23 26 22 32 33 28 34 42 42 42 42 33 24 19 24 25 34 33 34 36 38 39 35
21 25 24 26 31 32 28 26 23 21 19 17 17 18 26 27 20 21 24 25 19 21 28 24 25 19 23 26 31 34 37 42 38 31 26 27 31 33 38 36 29 36 43
19 23 24 24 24 24 27 26 23 17 14 16 20 26 30 33 32 30 31 23 27 29 24 21 32 29 18 25 27 31 32 32 32 33 33 31 32 40 40 42 36 38 41
18 23 25 24 20 16 14 16 19 15 15 20 25 25 25 28 25 22 27 32 31 35 37 41 41 31 18 19 17 9 21 20 22 29 33 36 38 34 32 36 32 38 37
26 26 25 21 20 20 20 17 14 14 21 18 19 24 22 20 18 19 16 13 15 17 24 32 47 36 39 23 27 25 23 27 23 25 26 32 30 36 35 39 39 43 47
29 24 15 13 19 23 13 15 16 16 17 14 20 20 21 22 16 8 12 16 24 6 18 30 43 35 38 45 38 33 28 28 27 32 28 32 31 32 36 41 41 44 46
26 29 24 19 17 16 14 10 16 16 16 12 12 17 24 26 28 32 25 10 7 24 24 24 30 29 30 29 34 33 28 27 26 27 29 34 31 28 31 37 38 37 45
23 23 19 17 10 12 14 14 12 17 16 14 8 4 9 11 20 26 30 22 13 6 16 21 25 25 27 23 21 30 30 23 25 24 31 37 38 46 42 41 32 40 35
25 19 20 15 10 14 8 11 13 5 7 14 19 26 17 13 17 23 25 20 16 13 8 22 19 24 29 17 22 36 27 26 28 32 27 32 39 35 37 45 30 32 34
16 19 9 10 11 7 8 11 18 5 5 10 22 19 15 12 7 13 17 13 16 13 15 19 17 22 30 22 30 28 26 26 29 31 33 37 38 36 39 42 43 40 31
20 15 10 8 10 5 4 2 3 6 9 11 12 9 10 11 23 30 29 19 18 14 11 14 16 12 24 22 25 25 30 28 31 34 30 30 36 41 39 42 41 43 36
17 19 11 9 16 14 2 1 3 8 9 11 14 21 28 30 29 31 22 10 8 6 9 8 14 14 21 25 24 23 28 25 34 36 36 29 43 36 39 38 35 41 40
11 28 13 13 13 9 6 3 5 9 12 13 15 19 25 25 19 13 6 10 9 9 16 15 17 10 20 22 23 27 29 28 33 35 38 41 36 47 40 41 40 42 39
22 24 14 8 3 3 4 5 10 8 12 16 14 12 25 27 27 19 7 6 9 13 11 13 15 17 18 21 22 26 26 28 27 37 37 40 36 42 51 43 42 44 43
19 14 10 4 5 6 4 4 7 3 11 7 12 12 15 23 18 17 19 11 9 9 9 16 13 14 15 19 23 22 22 25 26 27 28 33 33 37 41 37 33 32 47
13 12 8 4 12 3 1 5 5 5 7 11 3 14 14 10 14 14 14 15 15 12 10 10 13 15 18 23 21 30 20 24 33 29 26 34 38 35 42 37 30 27 36
11 4 15 10 5 6 9 0 3 3 4 5 12 24 17 17 12 8 8 11 10 11 16 16 13 13 17 21 20 24 25 19 20 25 23 19 32 43 44 34 31 25 27
7 8 6 7 6 5 3 2 2 2 3 4 9 18 18 19 10 10 11 12 11 12 10 9 16 15 14 21 20 22 19 22 28 30 34 28 34 46 50 44 37 23 26
12 14 6 8 9 9 7 2 2 1 3 4 5 6 9 6 7 8 9 9 9 9 10 11 10 10 14 15 19 19 24 24 25 27 32 27 35 45 46 47 43 38 35
8 10 10 5 5 4 5 5 6 10 8 3 3 3 5 6 6 10 6 7 6 9 9 10 10 14 16 9 16 21 24 19 19 24 27 23 30 36 36 38 42 41 44
14 12 10 9 5 8 6 6 6 5 4 3 3 3 4 4 3 4 5 6 8 6 10 9 13 11 12 22 23 23 26 21 13 18 24 28 32 32 34 38 49 35 43
15 11 11 9 9 9 8 8 8 7 6 5 3 3 2 1 1 2 3 2 3 7 8 9 11 9 18 23 24 25 25 21 14 20 24 25 32 33 30 38 40 37 32
Wind_Direction_850mb
82 77 87 65 61 63 64 79 80 87 92 96 92 85 80 78 75 72 71 69 64 64 63 52 49 44 48 38 34 21 19 8 5 359 351 346 351 352 0 5 356 346 340
76 71 78 82 90 99 95 96 93 93 89 89 86 82 72 69 65 64 62 62 67 63 74 73 67 64 56 46 44 39 30 20 28 15 14 21 9 10 4 350 346 328 303
78 86 87 94 107 109 106 105 105 100 100 93 86 75 68 67 66 60 52 43 30 5 350 28 36 41 71 55 29 13 14 47 5 9 358 346 359 0 6 349 331 338 343
102 99 94 90 94 97 99 97 92 89 95 107 113 117 118 111 92 86 69 43 32 35 41 34 40 53 44 19 16 23 34 40 25 38 30 50 42 28 2 350 330 331 319
96 98 100 109 107 112 109 106 107 104 99 89 85 83 85 101 90 77 83 99 80 59 48 34 32 54 46 41 38 35 34 30 26 55 9 359 353 345 342 327 318 314 312
98 99 102 106 120 118 120 120 113 98 80 66 61 74 87 90 95 91 84 75 93 98 77 61 23 53 53 49 40 27 30 24 34 31 12 6 359 351 347 349 340 328 323
122 133 142 140 130 121 112 106 95 84 75 72 90 96 89 86 80 65 58 79 69 63 54 46 45 48 70 49 41 35 29 26 25 23 22 9 357 354 346 345 337 324 323
137 142 125 125 108 97 103 97 90 82 78 88 95 95 91 86 83 77 50 44 52 58 46 40 30 30 52 52 36 38 29 8 28 24 14 5 1 4 359 349 348 335 336
124 124 117 113 112 110 103 105 96 103 96 98 92 92 91 95 89 76 88 11 6 47 52 38 24 37 47 45 40 55 47 48 27 18 16 8 359 354 357 360 1 351 343
130 119 98 104 108 106 110 102 95 109 110 108 97 85 79 72 68 60 59 86 60 301 53 41 26 40 41 41 43 45 42 27 25 25 12 13 2 353 354 351 356 352 348
103 100 99 96 99 112 108 113 136 143 137 124 118 83 58 59 41 38 30 51 79 52 41 21 16 23 24 35 45 37 22 20 17 22 9 14 10 354 351 355 4 358 359
109 105 98 102 91 76 106 114 121 100 80 76 78 100 76 64 34 27 21 21 29 69 19 3 15 19 13 23 47 25 13 12 18 17 2 3 1 2 1 355 348 356 2
133 121 105 92 78 73 115 136 100 93 288 27 99 103 94 37 27 26 21 14 0 22 9 351 2 19 4 13 23 6 11 15 21 10 4 355 2 5 353 359 6 10 12
148 135 139 110 104 138 140 100 141 139 103 38 59 27 36 20 358 345 344 339 335 341 332 357 18 17 24 37 12 18 17 12 8 2 7 358 358 358 359 359 9 10 8
146 147 142 63 117 136 159 33 318 309 327 324 343 356 345 308 315 328 333 332 342 346 7 10 19 12 21 15 14 6 3 8 8 4 2 2 354 354 5 9 9 5 5
174 164 159 126 140 125 57 66 44 33 22 352 349 340 328 310 307 314 326 349 16 42 52 14 359 5 15 6 10 1 1 7 359 7 6 1 4 7 1 7 7 360 2
200 163 171 131 160 154 47 24 356 342 349 2 0 345 10 21 354 343 69 82 61 41 52 11 2 30 19 8 3 356 6 14 1 359 3 5 6 6 5 2 8 3 2
152 164 130 138 95 124 57 292 316 343 0 352 339 357 22 19 25 43 92 62 36 21 352 339 24 31 17 8 0 356 5 1 3 8 3 6 10 2 1 4 6 4 7
141 150 164 184 127 118 350 279 330 293 340 281 317 357 5 0 350 30 48 23 19 353 16 23 13 22 11 0 356 351 358 359 2 10 7 4 2 355 1 360 4 2 360
178 187 168 173 180 187 283 254 247 356 27 43 126 311 295 339 322 12 30 9 14 23 16 43 23 24 354 356 356 359 7 2 3 356 3 359 359 0 2 3 4 3 354
154 318 186 175 204 210 284 29 2 17 27 286 330 15 89 78 43 33 25 24 46 45 40 27 28 11 2 346 5 8 2 358 353 11 7 6 14 3 6 357 359 9 355
195 174 187 192 228 204 164 98 98 43 50 44 353 32 59 66 48 46 46 49 43 34 22 35 29 24 12 357 11 8 348 356 3 6 11 27 29 16 6 9 2 4 347
255 214 199 170 217 245 147 137 122 83 95 94 88 53 48 55 54 60 48 45 34 28 27 22 24 1 350 29 6 331 337 351 1 3 9 28 27 13 12 8 12 15 11
230 198 194 213 161 179 187 216 268 184 126 102 101 94 88 77 52 45 50 40 44 19 21 20 19 12 7 353 320 333 351 345 3 13 15 23 14 16 14 15 16 17 14
210 178 199 202 222 191 225 192 179 174 179 164 142 102 67 62 39 48 48 42 23 21 28 6 352 18 359 347 0 0 6 9 11 23 26 32 28 16 8 6 1 355 8
218 182 201 214 216 222 225 218 215 212 213 209 193 195 177 80 347 33 17 338 72 7 36 347 7 353 347 6 10 12 14 23 54 60 33 27 17 17 357 12 6 2 4